Time,TemperatureF,DewpointF,PressureIn,WindDirection,WindDirectionDegrees,WindSpeedMPH,WindSpeedGustMPH,Humidity,HourlyPrecipIn,Conditions,Clouds,dailyrainin,SoftwareType,DateUTC
2013-06-09 00:01:00,66.4,47.7,27.58,WNW,286,0.0,0.0,51,0.00,,---,0.00,VWS V14.01,2013-06-09 04:01:00,
2013-06-09 00:02:00,66.4,47.7,27.58,WNW,286,2.2,2.2,51,0.00,,---,0.00,VWS V14.01,2013-06-09 04:02:00,
2013-06-09 00:07:00,66.4,48.2,27.58,WNW,286,0.0,0.0,52,0.00,,---,0.00,VWS V14.01,2013-06-09 04:07:00,
2013-06-09 00:12:00,66.4,48.2,27.58,WNW,286,0.0,0.0,52,0.00,,---,0.00,VWS V14.01,2013-06-09 04:12:00,
2013-06-09 00:17:00,66.4,48.2,27.58,WNW,286,0.0,0.0,52,0.00,,---,0.00,VWS V14.01,2013-06-09 04:17:00,
2013-06-09 00:22:00,66.4,48.8,27.58,WNW,286,0.0,0.0,53,0.00,,---,0.00,VWS V14.01,2013-06-09 04:22:00,
2013-06-09 00:27:00,66.4,48.8,27.58,WNW,286,0.0,0.0,53,0.00,,---,0.00,VWS V14.01,2013-06-09 04:27:00,
2013-06-09 00:32:00,66.2,48.6,27.58,WNW,286,0.0,0.0,53,0.00,,---,0.00,VWS V14.01,2013-06-09 04:32:00,
2013-06-09 00:37:00,66.2,48.6,27.58,WNW,286,0.0,0.0,53,0.00,,---,0.00,VWS V14.01,2013-06-09 04:37:00,
2013-06-09 00:42:00,66.2,48.6,27.58,WNW,286,0.0,0.0,53,0.00,,---,0.00,VWS V14.01,2013-06-09 04:42:00,
2013-06-09 00:47:00,66.0,48.9,27.58,WNW,286,0.0,0.0,54,0.00,,---,0.00,VWS V14.01,2013-06-09 04:47:00,
2013-06-09 00:52:00,65.8,48.8,27.58,WNW,286,0.0,0.0,54,0.00,,---,0.00,VWS V14.01,2013-06-09 04:52:00,
2013-06-09 00:57:00,65.7,48.6,27.58,WNW,286,0.0,0.0,54,0.00,,---,0.00,VWS V14.01,2013-06-09 04:57:00,
2013-06-09 01:02:00,65.7,48.6,27.58,WNW,286,0.0,0.0,54,0.00,,---,0.00,VWS V14.01,2013-06-09 05:02:00,
2013-06-09 01:07:00,65.5,48.9,27.58,WNW,286,0.0,0.0,55,0.00,,---,0.00,VWS V14.01,2013-06-09 05:07:00,
2013-06-09 01:12:00,65.5,48.9,27.58,WNW,286,0.0,0.0,55,0.00,,---,0.00,VWS V14.01,2013-06-09 05:12:00,
2013-06-09 01:17:00,65.5,48.9,27.58,WNW,286,0.0,0.0,55,0.00,,---,0.00,VWS V14.01,2013-06-09 05:17:00,
2013-06-09 01:22:00,65.5,49.4,27.58,WNW,286,0.0,0.0,56,0.00,,---,0.00,VWS V14.01,2013-06-09 05:22:00,
2013-06-09 01:27:00,65.5,49.4,27.58,WNW,286,0.0,0.0,56,0.00,,---,0.00,VWS V14.01,2013-06-09 05:27:00,
2013-06-09 01:32:00,65.5,49.4,27.58,WNW,286,0.0,0.0,56,0.00,,---,0.00,VWS V14.01,2013-06-09 05:32:00,
2013-06-09 01:37:00,65.5,49.4,27.58,WNW,286,0.0,0.0,56,0.00,,---,0.00,VWS V14.01,2013-06-09 05:37:00,
2013-06-09 01:42:00,65.5,49.9,27.58,SW,219,0.0,0.0,57,0.00,,---,0.00,VWS V14.01,2013-06-09 05:42:00,
2013-06-09 01:47:00,65.5,49.9,27.58,SSE,156,0.0,0.0,57,0.00,,---,0.00,VWS V14.01,2013-06-09 05:47:00,
2013-06-09 01:52:00,65.5,49.9,27.58,SSE,156,0.0,0.0,57,0.00,,---,0.00,VWS V14.01,2013-06-09 05:52:00,
2013-06-09 01:57:00,65.5,49.9,27.58,SSE,156,0.0,0.0,57,0.00,,---,0.00,VWS V14.01,2013-06-09 05:57:00,
2013-06-09 02:02:00,65.5,49.9,27.58,SSE,156,0.0,0.0,57,0.00,,---,0.00,VWS V14.01,2013-06-09 06:02:00,
2013-06-09 02:07:00,65.3,50.2,27.58,SE,139,0.0,0.0,58,0.00,,---,0.00,VWS V14.01,2013-06-09 06:07:00,
2013-06-09 02:12:00,65.3,50.2,27.58,SE,139,0.0,0.0,58,0.00,,---,0.00,VWS V14.01,2013-06-09 06:12:00,
2013-06-09 02:17:00,65.1,50.0,27.58,SE,139,0.0,0.0,58,0.00,,---,0.00,VWS V14.01,2013-06-09 06:17:00,
2013-06-09 02:22:00,65.1,50.0,27.58,SE,139,0.0,0.0,58,0.00,,---,0.00,VWS V14.01,2013-06-09 06:22:00,
2013-06-09 02:27:00,65.1,50.0,27.58,SE,139,0.0,0.0,58,0.00,,---,0.00,VWS V14.01,2013-06-09 06:27:00,
2013-06-09 02:32:00,64.9,49.4,27.58,SE,139,0.0,0.0,57,0.00,,---,0.00,VWS V14.01,2013-06-09 06:32:00,
2013-06-09 02:37:00,64.8,49.2,27.58,SE,139,0.0,0.0,57,0.00,,---,0.00,VWS V14.01,2013-06-09 06:37:00,
2013-06-09 02:42:00,64.8,49.2,27.58,SE,139,0.0,0.0,57,0.00,,---,0.00,VWS V14.01,2013-06-09 06:42:00,
2013-06-09 02:47:00,64.8,49.2,27.58,SE,139,0.0,0.0,57,0.00,,---,0.00,VWS V14.01,2013-06-09 06:47:00,
2013-06-09 02:52:00,64.6,49.0,27.58,SE,139,0.0,0.0,57,0.00,,---,0.00,VWS V14.01,2013-06-09 06:52:00,
2013-06-09 02:57:00,64.4,48.8,27.58,SE,139,0.0,0.0,57,0.00,,---,0.00,VWS V14.01,2013-06-09 06:57:00,
2013-06-09 03:02:00,64.2,48.7,27.58,SE,139,0.0,0.0,57,0.00,,---,0.00,VWS V14.01,2013-06-09 07:02:00,
2013-06-09 03:07:00,64.0,48.5,27.58,SE,139,0.0,0.0,57,0.00,,---,0.00,VWS V14.01,2013-06-09 07:07:00,
2013-06-09 03:12:00,64.0,48.5,27.58,SE,139,0.0,0.0,57,0.00,,---,0.00,VWS V14.01,2013-06-09 07:12:00,
2013-06-09 03:17:00,63.9,48.3,27.58,SE,139,0.0,0.0,57,0.00,,---,0.00,VWS V14.01,2013-06-09 07:17:00,
2013-06-09 03:22:00,63.9,48.3,27.58,SE,139,0.0,0.0,57,0.00,,---,0.00,VWS V14.01,2013-06-09 07:22:00,
2013-06-09 03:27:00,63.7,48.2,27.58,SE,139,0.0,0.0,57,0.00,,---,0.00,VWS V14.01,2013-06-09 07:27:00,
2013-06-09 03:32:00,63.7,48.2,27.58,SE,139,0.0,0.0,57,0.00,,---,0.00,VWS V14.01,2013-06-09 07:32:00,
2013-06-09 03:37:00,63.7,48.2,27.58,SE,139,0.0,0.0,57,0.00,,---,0.00,VWS V14.01,2013-06-09 07:37:00,
2013-06-09 03:42:00,63.7,48.2,27.58,SE,139,0.0,0.0,57,0.00,,---,0.00,VWS V14.01,2013-06-09 07:42:00,
2013-06-09 03:47:00,63.7,48.6,27.58,SE,139,0.0,0.0,58,0.00,,---,0.00,VWS V14.01,2013-06-09 07:47:00,
2013-06-09 03:52:00,63.7,48.6,27.58,SE,139,0.0,0.0,58,0.00,,---,0.00,VWS V14.01,2013-06-09 07:52:00,
2013-06-09 03:57:00,63.7,48.6,27.58,SE,139,0.0,0.0,58,0.00,,---,0.00,VWS V14.01,2013-06-09 07:57:00,
2013-06-09 04:02:00,63.5,48.5,27.58,SE,139,0.0,0.0,58,0.00,,---,0.00,VWS V14.01,2013-06-09 08:02:00,
2013-06-09 04:07:00,63.5,48.5,27.58,SE,139,0.0,0.0,58,0.00,,---,0.00,VWS V14.01,2013-06-09 08:07:00,
2013-06-09 04:12:00,63.5,48.5,27.58,SE,139,0.0,0.0,58,0.00,,---,0.00,VWS V14.01,2013-06-09 08:12:00,
2013-06-09 04:17:00,63.5,48.9,27.58,SE,139,0.0,0.0,59,0.00,,---,0.00,VWS V14.01,2013-06-09 08:17:00,
2013-06-09 04:22:00,63.5,48.9,27.58,SE,139,0.0,0.0,59,0.00,,---,0.00,VWS V14.01,2013-06-09 08:22:00,
2013-06-09 04:27:00,63.5,48.9,27.58,SE,139,0.0,0.0,59,0.00,,---,0.00,VWS V14.01,2013-06-09 08:27:00,
2013-06-09 04:32:00,63.5,48.9,27.58,SE,139,0.0,0.0,59,0.00,,---,0.00,VWS V14.01,2013-06-09 08:32:00,
2013-06-09 04:37:00,63.5,48.9,27.58,SE,139,0.0,0.0,59,0.00,,---,0.00,VWS V14.01,2013-06-09 08:37:00,
2013-06-09 04:42:00,63.3,48.8,27.58,SE,139,0.0,0.0,59,0.00,,---,0.00,VWS V14.01,2013-06-09 08:42:00,
2013-06-09 04:47:00,63.3,48.8,27.58,SE,139,0.0,0.0,59,0.00,,---,0.00,VWS V14.01,2013-06-09 08:47:00,
2013-06-09 04:52:00,63.3,48.8,27.58,SE,139,0.0,0.0,59,0.00,,---,0.00,VWS V14.01,2013-06-09 08:52:00,
2013-06-09 04:57:00,63.3,48.8,27.58,SE,139,0.0,0.0,59,0.00,,---,0.00,VWS V14.01,2013-06-09 08:57:00,
2013-06-09 05:02:00,63.3,48.8,27.58,SE,139,0.0,0.0,59,0.00,,---,0.00,VWS V14.01,2013-06-09 09:02:00,
2013-06-09 05:07:00,63.3,48.8,27.58,SE,139,0.0,0.0,59,0.00,,---,0.00,VWS V14.01,2013-06-09 09:07:00,
2013-06-09 05:12:00,63.3,48.8,27.58,SE,139,0.0,0.0,59,0.00,,---,0.00,VWS V14.01,2013-06-09 09:12:00,
2013-06-09 05:17:00,63.3,48.8,27.58,SE,139,0.0,0.0,59,0.00,,---,0.00,VWS V14.01,2013-06-09 09:17:00,
2013-06-09 05:22:00,63.3,49.2,27.58,SE,139,0.0,0.0,60,0.00,,---,0.00,VWS V14.01,2013-06-09 09:22:00,
2013-06-09 05:27:00,63.3,49.2,27.61,SE,139,0.0,0.0,60,0.00,,---,0.00,VWS V14.01,2013-06-09 09:27:00,
2013-06-09 05:32:00,63.3,49.2,27.61,SE,139,0.0,0.0,60,0.00,,---,0.00,VWS V14.01,2013-06-09 09:32:00,
2013-06-09 05:37:00,63.3,49.2,27.61,SE,139,0.0,0.0,60,0.00,,---,0.00,VWS V14.01,2013-06-09 09:37:00,
2013-06-09 05:42:00,63.3,49.2,27.61,SE,139,0.0,0.0,60,0.00,,---,0.00,VWS V14.01,2013-06-09 09:42:00,
2013-06-09 05:47:00,63.1,49.0,27.61,SE,139,0.0,0.0,60,0.00,,---,0.00,VWS V14.01,2013-06-09 09:47:00,
2013-06-09 05:52:00,63.1,49.0,27.61,SE,139,0.0,0.0,60,0.00,,---,0.00,VWS V14.01,2013-06-09 09:52:00,
2013-06-09 05:57:00,63.1,49.0,27.61,SE,139,0.0,0.0,60,0.00,,---,0.00,VWS V14.01,2013-06-09 09:57:00,
2013-06-09 06:02:00,63.0,48.9,27.61,SE,139,0.0,0.0,60,0.00,,---,0.00,VWS V14.01,2013-06-09 10:02:00,
2013-06-09 06:07:00,63.0,48.9,27.61,SE,139,0.0,0.0,60,0.00,,---,0.00,VWS V14.01,2013-06-09 10:07:00,
2013-06-09 06:12:00,63.0,49.3,27.61,SE,139,0.0,0.0,61,0.00,,---,0.00,VWS V14.01,2013-06-09 10:12:00,
2013-06-09 06:17:00,63.0,49.3,27.61,SE,139,0.0,0.0,61,0.00,,---,0.00,VWS V14.01,2013-06-09 10:17:00,
2013-06-09 06:22:00,62.8,49.2,27.61,SE,139,0.0,0.0,61,0.00,,---,0.00,VWS V14.01,2013-06-09 10:22:00,
2013-06-09 06:27:00,62.6,49.0,27.61,SE,139,0.0,0.0,61,0.00,,---,0.00,VWS V14.01,2013-06-09 10:27:00,
2013-06-09 06:32:00,62.6,49.0,27.61,SE,139,0.0,0.0,61,0.00,,---,0.00,VWS V14.01,2013-06-09 10:32:00,
2013-06-09 06:37:00,62.6,49.4,27.61,SE,139,0.0,0.0,62,0.00,,---,0.00,VWS V14.01,2013-06-09 10:37:00,
2013-06-09 06:42:00,62.8,49.6,27.61,SE,139,0.0,0.0,62,0.00,,---,0.00,VWS V14.01,2013-06-09 10:42:00,
2013-06-09 06:47:00,62.8,50.0,27.61,SE,139,0.0,0.0,63,0.00,,---,0.00,VWS V14.01,2013-06-09 10:47:00,
2013-06-09 06:52:00,63.0,50.2,27.61,SE,139,0.0,0.0,63,0.00,,---,0.00,VWS V14.01,2013-06-09 10:52:00,
2013-06-09 06:57:00,63.1,50.3,27.61,SE,139,0.0,0.0,63,0.00,,---,0.00,VWS V14.01,2013-06-09 10:57:00,
2013-06-09 07:02:00,63.1,50.3,27.61,SE,139,0.0,0.0,63,0.00,,---,0.00,VWS V14.01,2013-06-09 11:02:00,
2013-06-09 07:07:00,63.3,50.5,27.61,SE,139,0.0,0.0,63,0.00,,---,0.00,VWS V14.01,2013-06-09 11:07:00,
2013-06-09 07:12:00,63.3,51.0,27.61,SE,139,0.0,0.0,64,0.00,,---,0.00,VWS V14.01,2013-06-09 11:12:00,
2013-06-09 07:17:00,63.5,51.1,27.61,SE,139,0.0,0.0,64,0.00,,---,0.00,VWS V14.01,2013-06-09 11:17:00,
2013-06-09 07:22:00,63.7,51.3,27.61,SE,139,0.0,0.0,64,0.00,,---,0.00,VWS V14.01,2013-06-09 11:22:00,
2013-06-09 07:27:00,63.9,51.9,27.61,SE,139,0.0,0.0,65,0.00,,---,0.00,VWS V14.01,2013-06-09 11:27:00,
2013-06-09 07:32:00,64.0,52.0,27.61,SE,139,0.0,0.0,65,0.00,,---,0.00,VWS V14.01,2013-06-09 11:32:00,
2013-06-09 07:37:00,64.2,52.2,27.61,SE,139,0.0,0.0,65,0.00,,---,0.00,VWS V14.01,2013-06-09 11:37:00,
2013-06-09 07:42:00,64.4,52.4,27.61,SE,139,0.0,0.0,65,0.00,,---,0.00,VWS V14.01,2013-06-09 11:42:00,
2013-06-09 07:47:00,64.6,52.6,27.61,SE,139,0.0,0.0,65,0.00,,---,0.00,VWS V14.01,2013-06-09 11:47:00,
2013-06-09 07:52:00,64.8,52.7,27.61,SE,139,0.0,0.0,65,0.00,,---,0.00,VWS V14.01,2013-06-09 11:52:00,
2013-06-09 07:57:00,64.9,53.3,27.61,SE,139,0.0,0.0,66,0.00,,---,0.00,VWS V14.01,2013-06-09 11:57:00,
2013-06-09 08:02:00,65.1,53.5,27.61,SE,139,0.0,0.0,66,0.00,,---,0.00,VWS V14.01,2013-06-09 12:02:00,
2013-06-09 08:07:00,65.1,53.5,27.61,SE,139,0.0,0.0,66,0.00,,---,0.00,VWS V14.01,2013-06-09 12:07:00,
2013-06-09 08:12:00,65.5,53.8,27.61,SE,139,0.0,0.0,66,0.00,,---,0.00,VWS V14.01,2013-06-09 12:12:00,
2013-06-09 08:17:00,65.7,54.0,27.61,SE,139,0.0,0.0,66,0.00,,---,0.00,VWS V14.01,2013-06-09 12:17:00,
2013-06-09 08:22:00,65.7,54.0,27.61,SE,139,0.0,0.0,66,0.00,,---,0.00,VWS V14.01,2013-06-09 12:22:00,
2013-06-09 08:27:00,65.8,54.2,27.64,SE,139,0.0,0.0,66,0.00,,---,0.00,VWS V14.01,2013-06-09 12:27:00,
2013-06-09 08:32:00,65.8,54.2,27.64,SE,139,0.0,0.0,66,0.00,,---,0.00,VWS V14.01,2013-06-09 12:32:00,
2013-06-09 08:37:00,66.0,54.3,27.64,SE,139,0.0,0.0,66,0.00,,---,0.00,VWS V14.01,2013-06-09 12:37:00,
2013-06-09 08:42:00,66.2,54.5,27.64,SE,139,0.0,0.0,66,0.00,,---,0.00,VWS V14.01,2013-06-09 12:42:00,
2013-06-09 08:47:00,66.4,54.7,27.64,SE,139,0.0,0.0,66,0.00,,---,0.00,VWS V14.01,2013-06-09 12:47:00,
2013-06-09 08:52:00,66.6,54.9,27.64,SE,139,0.0,0.0,66,0.00,,---,0.00,VWS V14.01,2013-06-09 12:52:00,
2013-06-09 08:57:00,66.9,55.6,27.64,SE,139,0.0,0.0,67,0.00,,---,0.00,VWS V14.01,2013-06-09 12:57:00,
2013-06-09 09:02:00,67.3,56.0,27.64,SE,139,0.0,0.0,67,0.00,,---,0.00,VWS V14.01,2013-06-09 13:02:00,
2013-06-09 09:07:00,67.6,56.3,27.64,ENE,73,2.2,2.2,67,0.00,,---,0.00,VWS V14.01,2013-06-09 13:07:00,
2013-06-09 09:12:00,68.0,56.2,27.64,East,100,0.0,0.0,66,0.00,,---,0.00,VWS V14.01,2013-06-09 13:12:00,
2013-06-09 09:17:00,68.2,56.0,27.64,ESE,102,3.6,3.6,65,0.00,,---,0.00,VWS V14.01,2013-06-09 13:17:00,
2013-06-09 09:22:00,68.4,56.2,27.64,ESE,102,0.0,0.0,65,0.00,,---,0.00,VWS V14.01,2013-06-09 13:22:00,
2013-06-09 09:27:00,68.5,55.9,27.64,ESE,102,0.0,2.7,64,0.00,,---,0.00,VWS V14.01,2013-06-09 13:27:00,
2013-06-09 09:32:00,68.9,55.8,27.64,ESE,102,0.0,0.0,63,0.00,,---,0.00,VWS V14.01,2013-06-09 13:32:00,
2013-06-09 09:37:00,69.1,55.5,27.64,ESE,102,2.7,3.6,62,0.00,,---,0.00,VWS V14.01,2013-06-09 13:37:00,
2013-06-09 09:42:00,69.4,55.0,27.64,NE,51,2.2,3.1,60,0.00,,---,0.00,VWS V14.01,2013-06-09 13:42:00,
2013-06-09 09:47:00,69.8,53.9,27.64,SE,130,0.0,2.7,57,0.00,,---,0.00,VWS V14.01,2013-06-09 13:47:00,
2013-06-09 09:52:00,70.2,53.3,27.64,East,90,2.2,2.2,55,0.00,,---,0.00,VWS V14.01,2013-06-09 13:52:00,
2013-06-09 09:57:00,70.3,52.9,27.61,ESE,116,0.0,0.0,54,0.00,,---,0.00,VWS V14.01,2013-06-09 13:57:00,
2013-06-09 10:02:00,70.9,52.4,27.61,ESE,107,2.2,2.2,52,0.00,,---,0.00,VWS V14.01,2013-06-09 14:02:00,
2013-06-09 10:07:00,70.9,51.3,27.61,ESE,107,0.0,0.0,50,0.00,,---,0.00,VWS V14.01,2013-06-09 14:07:00,
2013-06-09 10:12:00,70.7,50.1,27.61,ESE,107,0.0,0.0,48,0.00,,---,0.00,VWS V14.01,2013-06-09 14:12:00,
2013-06-09 10:17:00,70.9,50.2,27.61,ESE,107,0.0,0.0,48,0.00,,---,0.00,VWS V14.01,2013-06-09 14:17:00,
2013-06-09 10:22:00,71.2,50.6,27.61,ESE,106,2.7,3.1,48,0.00,,---,0.00,VWS V14.01,2013-06-09 14:22:00,
2013-06-09 10:27:00,71.8,50.5,27.61,ESE,106,2.2,2.2,47,0.00,,---,0.00,VWS V14.01,2013-06-09 14:27:00,
2013-06-09 10:32:00,72.3,50.4,27.61,ESE,102,0.0,0.0,46,0.00,,---,0.00,VWS V14.01,2013-06-09 14:32:00,
2013-06-09 10:37:00,73.0,50.5,27.61,ESE,102,0.0,0.0,45,0.00,,---,0.00,VWS V14.01,2013-06-09 14:37:00,
2013-06-09 10:42:00,73.6,49.7,27.61,East,96,3.1,3.1,43,0.00,,---,0.00,VWS V14.01,2013-06-09 14:42:00,
2013-06-09 10:47:00,73.9,48.8,27.61,East,96,3.1,3.1,41,0.00,,---,0.00,VWS V14.01,2013-06-09 14:47:00,
2013-06-09 10:52:00,74.5,48.6,27.61,SE,127,3.6,3.6,40,0.00,,---,0.00,VWS V14.01,2013-06-09 14:52:00,
2013-06-09 10:57:00,75.0,49.1,27.61,NNE,17,3.6,3.6,40,0.00,,---,0.00,VWS V14.01,2013-06-09 14:57:00,
2013-06-09 11:02:00,75.9,47.8,27.61,East,86,0.0,0.0,37,0.00,,---,0.00,VWS V14.01,2013-06-09 15:02:00,
2013-06-09 11:07:00,76.5,47.5,27.61,SSW,198,3.1,3.1,36,0.00,,---,0.00,VWS V14.01,2013-06-09 15:07:00,
2013-06-09 11:12:00,77.2,45.9,27.61,SE,124,2.7,3.1,33,0.00,,---,0.00,VWS V14.01,2013-06-09 15:12:00,
2013-06-09 11:17:00,77.5,43.7,27.61,WSW,252,0.0,2.7,30,0.00,,---,0.00,VWS V14.01,2013-06-09 15:17:00,
2013-06-09 11:22:00,77.9,43.1,27.61,East,101,3.1,3.1,29,0.00,,---,0.00,VWS V14.01,2013-06-09 15:22:00,
2013-06-09 11:27:00,78.1,39.4,27.61,SW,232,0.0,3.6,25,0.00,,---,0.00,VWS V14.01,2013-06-09 15:27:00,
2013-06-09 11:32:00,78.1,39.4,27.61,ESE,123,3.1,3.1,25,0.00,,---,0.00,VWS V14.01,2013-06-09 15:32:00,
2013-06-09 11:37:00,78.6,39.9,27.61,SE,137,3.1,4.0,25,0.00,,---,0.00,VWS V14.01,2013-06-09 15:37:00,
2013-06-09 11:42:00,78.6,36.6,27.61,SE,137,2.7,4.0,22,0.00,,---,0.00,VWS V14.01,2013-06-09 15:42:00,
2013-06-09 11:47:00,78.3,35.2,27.61,NE,54,0.0,0.0,21,0.00,,---,0.00,VWS V14.01,2013-06-09 15:47:00,
2013-06-09 11:52:00,77.5,36.8,27.61,SSW,203,3.1,3.1,23,0.00,,---,0.00,VWS V14.01,2013-06-09 15:52:00,
2013-06-09 11:57:00,77.9,37.2,27.61,NE,44,2.2,2.2,23,0.00,,---,0.00,VWS V14.01,2013-06-09 15:57:00,
2013-06-09 12:02:00,78.1,37.3,27.61,NE,44,0.0,0.0,23,0.00,,---,0.00,VWS V14.01,2013-06-09 16:02:00,
2013-06-09 12:07:00,78.4,37.6,27.61,ESE,120,2.7,2.7,23,0.00,,---,0.00,VWS V14.01,2013-06-09 16:07:00,
2013-06-09 12:12:00,78.4,36.5,27.61,South,189,0.0,0.0,22,0.00,,---,0.00,VWS V14.01,2013-06-09 16:12:00,
2013-06-09 12:17:00,78.1,36.2,27.61,East,82,2.7,2.7,22,0.00,,---,0.00,VWS V14.01,2013-06-09 16:17:00,
2013-06-09 12:22:00,77.7,34.7,27.61,ESE,119,5.4,5.4,21,0.00,,---,0.00,VWS V14.01,2013-06-09 16:22:00,
2013-06-09 12:27:00,77.4,35.6,27.61,NE,38,2.7,3.6,22,0.00,,---,0.00,VWS V14.01,2013-06-09 16:27:00,
2013-06-09 12:32:00,76.5,36.0,27.61,NE,38,0.0,0.0,23,0.00,,---,0.00,VWS V14.01,2013-06-09 16:32:00,
2013-06-09 12:37:00,75.4,39.1,27.61,NE,38,0.0,0.0,27,0.00,,---,0.00,VWS V14.01,2013-06-09 16:37:00,
2013-06-09 12:42:00,74.5,42.7,27.58,NE,43,3.1,3.1,32,0.00,,---,0.00,VWS V14.01,2013-06-09 16:42:00,
2013-06-09 12:47:00,74.5,45.8,27.58,West,266,2.2,3.1,36,0.00,,---,0.00,VWS V14.01,2013-06-09 16:47:00,
2013-06-09 12:52:00,74.5,45.8,27.58,East,100,2.7,4.0,36,0.00,,---,0.00,VWS V14.01,2013-06-09 16:52:00,
2013-06-09 12:57:00,73.9,45.3,27.58,East,100,0.0,0.0,36,0.04,,---,0.04,VWS V14.01,2013-06-09 16:57:00,
2013-06-09 13:02:00,73.2,45.4,27.58,NNW,348,0.0,2.7,37,0.04,,---,0.04,VWS V14.01,2013-06-09 17:02:00,
2013-06-09 13:07:00,72.5,46.8,27.58,NNW,346,0.0,0.0,40,0.08,,---,0.08,VWS V14.01,2013-06-09 17:07:00,
2013-06-09 13:12:00,72.0,47.6,27.58,NNW,343,0.0,0.0,42,0.08,,---,0.08,VWS V14.01,2013-06-09 17:12:00,
2013-06-09 13:17:00,72.0,48.9,27.58,NNW,343,0.0,0.0,44,0.08,,---,0.08,VWS V14.01,2013-06-09 17:17:00,
2013-06-09 13:22:00,72.1,49.0,27.58,East,97,0.0,2.2,44,0.12,,---,0.12,VWS V14.01,2013-06-09 17:22:00,
2013-06-09 13:27:00,71.8,48.1,27.58,ENE,75,2.2,2.7,43,0.12,,---,0.12,VWS V14.01,2013-06-09 17:27:00,
2013-06-09 13:32:00,71.1,46.8,27.58,ENE,65,0.0,0.0,42,0.12,,---,0.12,VWS V14.01,2013-06-09 17:32:00,
2013-06-09 13:37:00,70.5,47.0,27.58,ENE,60,0.0,0.0,43,0.12,,---,0.12,VWS V14.01,2013-06-09 17:37:00,
2013-06-09 13:42:00,70.3,46.8,27.58,ENE,68,0.0,0.0,43,0.12,,---,0.12,VWS V14.01,2013-06-09 17:42:00,
2013-06-09 13:47:00,70.3,47.4,27.58,ENE,68,0.0,0.0,44,0.12,,---,0.12,VWS V14.01,2013-06-09 17:47:00,
2013-06-09 13:52:00,70.7,48.9,27.58,ENE,68,0.0,0.0,46,0.12,,---,0.12,VWS V14.01,2013-06-09 17:52:00,
2013-06-09 13:57:00,71.1,49.3,27.55,ENE,68,0.0,0.0,46,0.08,,---,0.12,VWS V14.01,2013-06-09 17:57:00,
2013-06-09 14:02:00,71.4,49.6,27.55,ENE,68,0.0,0.0,46,0.08,,---,0.12,VWS V14.01,2013-06-09 18:02:00,
2013-06-09 14:07:00,71.2,49.4,27.55,ENE,68,0.0,0.0,46,0.04,,---,0.12,VWS V14.01,2013-06-09 18:07:00,
2013-06-09 14:12:00,71.2,50.0,27.55,ENE,68,0.0,0.0,47,0.08,,---,0.16,VWS V14.01,2013-06-09 18:12:00,
2013-06-09 14:17:00,71.8,51.1,27.55,ENE,68,0.0,0.0,48,0.08,,---,0.16,VWS V14.01,2013-06-09 18:17:00,
2013-06-09 14:22:00,72.3,52.1,27.55,ENE,68,0.0,0.0,49,0.04,,---,0.16,VWS V14.01,2013-06-09 18:22:00,
2013-06-09 14:27:00,72.7,52.4,27.55,ENE,60,0.0,0.0,49,0.04,,---,0.16,VWS V14.01,2013-06-09 18:27:00,
2013-06-09 14:32:00,73.0,51.6,27.55,ESE,113,0.0,2.7,47,0.04,,---,0.16,VWS V14.01,2013-06-09 18:32:00,
2013-06-09 14:37:00,73.4,52.0,27.55,ESE,113,0.0,0.0,47,0.04,,---,0.16,VWS V14.01,2013-06-09 18:37:00,
2013-06-09 14:42:00,74.5,53.5,27.55,ENE,76,0.0,0.0,48,0.04,,---,0.16,VWS V14.01,2013-06-09 18:42:00,
2013-06-09 14:47:00,75.4,53.2,27.55,ENE,76,0.0,0.0,46,0.04,,---,0.16,VWS V14.01,2013-06-09 18:47:00,
2013-06-09 14:52:00,75.7,51.0,27.55,ENE,65,0.0,0.0,42,0.04,,---,0.16,VWS V14.01,2013-06-09 18:52:00,
2013-06-09 14:57:00,75.2,48.6,27.55,ENE,65,0.0,0.0,39,0.04,,---,0.16,VWS V14.01,2013-06-09 18:57:00,
2013-06-09 15:02:00,74.3,46.4,27.55,ESE,113,3.6,3.6,37,0.04,,---,0.16,VWS V14.01,2013-06-09 19:02:00,
2013-06-09 15:07:00,73.4,46.3,27.55,East,93,0.0,0.0,38,0.04,,---,0.16,VWS V14.01,2013-06-09 19:07:00,
2013-06-09 15:12:00,73.0,48.0,27.55,ESE,102,0.0,0.0,41,0.00,,---,0.16,VWS V14.01,2013-06-09 19:12:00,
2013-06-09 15:17:00,72.9,49.1,27.55,SSE,153,0.0,0.0,43,0.00,,---,0.16,VWS V14.01,2013-06-09 19:17:00,
2013-06-09 15:22:00,73.2,49.4,27.55,ESE,111,0.0,0.0,43,0.00,,---,0.16,VWS V14.01,2013-06-09 19:22:00,
2013-06-09 15:27:00,73.6,49.1,27.55,ESE,104,0.0,0.0,42,0.00,,---,0.16,VWS V14.01,2013-06-09 19:27:00,
2013-06-09 15:32:00,73.6,49.1,27.55,NE,55,6.3,6.3,42,0.00,,---,0.16,VWS V14.01,2013-06-09 19:32:00,
2013-06-09 15:37:00,73.6,48.5,27.55,ENE,68,4.9,4.9,41,0.00,,---,0.16,VWS V14.01,2013-06-09 19:37:00,
2013-06-09 15:42:00,73.2,46.8,27.55,NNE,32,2.7,2.7,39,0.00,,---,0.16,VWS V14.01,2013-06-09 19:42:00,
2013-06-09 15:47:00,72.7,46.3,27.55,East,99,2.2,2.2,39,0.00,,---,0.16,VWS V14.01,2013-06-09 19:47:00,
2013-06-09 15:52:00,71.8,44.8,27.55,SE,139,0.0,0.0,38,0.00,,---,0.16,VWS V14.01,2013-06-09 19:52:00,
2013-06-09 15:57:00,71.2,46.4,27.55,South,185,0.0,0.0,41,0.04,,---,0.20,VWS V14.01,2013-06-09 19:57:00,
2013-06-09 16:02:00,70.7,46.5,27.55,South,185,0.0,0.0,42,0.04,,---,0.20,VWS V14.01,2013-06-09 20:02:00,
2013-06-09 16:07:00,70.2,46.6,27.55,South,185,0.0,0.0,43,0.04,,---,0.20,VWS V14.01,2013-06-09 20:07:00,
2013-06-09 16:12:00,69.8,47.5,27.52,SSW,197,2.2,2.2,45,0.04,,---,0.20,VWS V14.01,2013-06-09 20:12:00,
2013-06-09 16:17:00,69.6,48.0,27.52,NNW,332,2.2,2.2,46,0.12,,---,0.28,VWS V14.01,2013-06-09 20:17:00,
2013-06-09 16:22:00,69.4,48.9,27.52,ESE,118,0.0,0.0,48,0.12,,---,0.28,VWS V14.01,2013-06-09 20:22:00,
2013-06-09 16:27:00,69.3,49.8,27.55,NNE,31,8.3,8.3,50,0.16,,---,0.31,VWS V14.01,2013-06-09 20:27:00,
2013-06-09 16:32:00,69.1,49.7,27.55,West,274,2.7,2.7,50,0.16,,---,0.31,VWS V14.01,2013-06-09 20:32:00,
2013-06-09 16:37:00,68.9,49.5,27.55,West,266,0.0,0.0,50,0.16,,---,0.31,VWS V14.01,2013-06-09 20:37:00,
2013-06-09 16:42:00,68.5,49.2,27.58,West,266,0.0,0.0,50,0.16,,---,0.31,VWS V14.01,2013-06-09 20:42:00,
2013-06-09 16:47:00,68.4,49.5,27.58,West,266,0.0,0.0,51,0.20,,---,0.35,VWS V14.01,2013-06-09 20:47:00,
2013-06-09 16:52:00,68.2,49.4,27.58,West,266,0.0,0.0,51,0.20,,---,0.35,VWS V14.01,2013-06-09 20:52:00,
2013-06-09 16:57:00,68.0,49.7,27.58,West,266,0.0,0.0,52,0.20,,---,0.39,VWS V14.01,2013-06-09 20:57:00,
2013-06-09 17:02:00,68.0,49.7,27.58,ESE,115,2.2,2.2,52,0.24,,---,0.43,VWS V14.01,2013-06-09 21:02:00,
2013-06-09 17:07:00,67.8,50.1,27.58,SW,229,4.0,4.0,53,0.24,,---,0.43,VWS V14.01,2013-06-09 21:07:00,
2013-06-09 17:12:00,67.6,50.4,27.58,SW,214,2.7,2.7,54,0.24,,---,0.43,VWS V14.01,2013-06-09 21:12:00,
2013-06-09 17:17:00,67.6,50.4,27.58,West,277,0.0,0.0,54,0.20,,---,0.47,VWS V14.01,2013-06-09 21:17:00,
2013-06-09 17:22:00,67.6,50.9,27.58,SSW,193,2.2,4.0,55,0.20,,---,0.47,VWS V14.01,2013-06-09 21:22:00,
2013-06-09 17:27:00,67.5,50.8,27.55,SE,137,0.0,0.0,55,0.24,,---,0.55,VWS V14.01,2013-06-09 21:27:00,
2013-06-09 17:32:00,67.5,51.2,27.55,SE,137,0.0,0.0,56,0.24,,---,0.55,VWS V14.01,2013-06-09 21:32:00,
2013-06-09 17:37:00,67.5,51.2,27.55,ESE,123,0.0,0.0,56,0.28,,---,0.59,VWS V14.01,2013-06-09 21:37:00,
2013-06-09 17:42:00,67.6,51.9,27.55,ENE,58,3.1,3.1,57,0.28,,---,0.59,VWS V14.01,2013-06-09 21:42:00,
2013-06-09 17:47:00,67.8,52.5,27.55,ENE,69,0.0,0.0,58,0.24,,---,0.59,VWS V14.01,2013-06-09 21:47:00,
2013-06-09 17:52:00,68.0,52.7,27.55,West,273,0.0,0.0,58,0.24,,---,0.59,VWS V14.01,2013-06-09 21:52:00,
2013-06-09 17:57:00,68.0,52.7,27.55,NNW,329,0.0,0.0,58,0.20,,---,0.59,VWS V14.01,2013-06-09 21:57:00,
2013-06-09 18:02:00,68.2,52.9,27.55,SW,234,0.0,0.0,58,0.16,,---,0.59,VWS V14.01,2013-06-09 22:02:00,
2013-06-09 18:07:00,68.0,53.2,27.55,ESE,117,0.0,0.0,59,0.16,,---,0.59,VWS V14.01,2013-06-09 22:07:00,
2013-06-09 18:12:00,68.0,53.2,27.55,NE,46,3.6,3.6,59,0.16,,---,0.59,VWS V14.01,2013-06-09 22:12:00,
2013-06-09 18:17:00,68.2,53.3,27.55,NE,39,0.0,0.0,59,0.12,,---,0.59,VWS V14.01,2013-06-09 22:17:00,
2013-06-09 18:22:00,68.0,53.2,27.55,East,84,0.0,0.0,59,0.12,,---,0.59,VWS V14.01,2013-06-09 22:22:00,
2013-06-09 18:27:00,68.2,53.3,27.55,SSW,201,0.0,0.0,59,0.04,,---,0.59,VWS V14.01,2013-06-09 22:27:00,
2013-06-09 18:32:00,68.2,53.3,27.55,SSW,199,0.0,0.0,59,0.04,,---,0.59,VWS V14.01,2013-06-09 22:32:00,
2013-06-09 18:37:00,68.0,53.2,27.55,NE,42,3.1,4.0,59,0.00,,---,0.59,VWS V14.01,2013-06-09 22:37:00,
2013-06-09 18:42:00,68.0,53.2,27.55,East,89,0.0,0.0,59,0.00,,---,0.59,VWS V14.01,2013-06-09 22:42:00,
2013-06-09 18:47:00,68.0,53.2,27.55,East,89,0.0,0.0,59,0.00,,---,0.59,VWS V14.01,2013-06-09 22:47:00,
2013-06-09 18:52:00,67.8,53.4,27.55,SSW,209,3.1,3.1,60,0.00,,---,0.59,VWS V14.01,2013-06-09 22:52:00,
2013-06-09 18:57:00,67.8,53.4,27.55,East,97,0.0,0.0,60,0.00,,---,0.59,VWS V14.01,2013-06-09 22:57:00,
2013-06-09 19:02:00,67.8,53.4,27.55,ESE,108,0.0,0.0,60,0.00,,---,0.59,VWS V14.01,2013-06-09 23:02:00,
2013-06-09 19:07:00,67.8,53.4,27.55,ESE,108,0.0,0.0,60,0.00,,---,0.59,VWS V14.01,2013-06-09 23:07:00,
2013-06-09 19:12:00,67.8,53.9,27.55,East,80,0.0,0.0,61,0.00,,---,0.59,VWS V14.01,2013-06-09 23:12:00,
2013-06-09 19:17:00,67.8,53.9,27.55,South,170,0.0,0.0,61,0.00,,---,0.59,VWS V14.01,2013-06-09 23:17:00,
2013-06-09 19:22:00,67.8,53.9,27.55,SSE,157,0.0,0.0,61,0.00,,---,0.59,VWS V14.01,2013-06-09 23:22:00,
2013-06-09 19:27:00,67.6,53.7,27.55,SSE,157,0.0,0.0,61,0.00,,---,0.59,VWS V14.01,2013-06-09 23:27:00,
2013-06-09 19:32:00,67.6,53.7,27.55,SSE,157,0.0,0.0,61,0.00,,---,0.59,VWS V14.01,2013-06-09 23:32:00,
2013-06-09 19:37:00,67.6,54.2,27.55,North,3,0.0,0.0,62,0.00,,---,0.59,VWS V14.01,2013-06-09 23:37:00,
2013-06-09 19:42:00,67.5,54.0,27.55,NE,46,0.0,0.0,62,0.00,,---,0.59,VWS V14.01,2013-06-09 23:42:00,
2013-06-09 19:47:00,67.5,54.0,27.55,SE,145,0.0,0.0,62,0.00,,---,0.59,VWS V14.01,2013-06-09 23:47:00,
2013-06-09 19:52:00,67.3,53.8,27.55,NE,46,0.0,0.0,62,0.04,,---,0.63,VWS V14.01,2013-06-09 23:52:00,
2013-06-09 19:57:00,67.3,53.8,27.55,ESE,120,3.6,5.4,62,0.04,,---,0.63,VWS V14.01,2013-06-09 23:57:00,
2013-06-09 20:02:00,67.3,54.3,27.55,NE,44,0.0,3.1,63,0.04,,---,0.63,VWS V14.01,2013-06-10 00:02:00,
2013-06-09 20:07:00,67.3,54.3,27.55,NNE,33,0.0,0.0,63,0.04,,---,0.63,VWS V14.01,2013-06-10 00:07:00,
2013-06-09 20:12:00,67.3,54.3,27.55,NE,42,0.0,0.0,63,0.04,,---,0.63,VWS V14.01,2013-06-10 00:12:00,
2013-06-09 20:17:00,67.1,54.1,27.55,ENE,62,0.0,0.0,63,0.04,,---,0.63,VWS V14.01,2013-06-10 00:17:00,
2013-06-09 20:22:00,67.1,54.1,27.55,East,91,0.0,2.2,63,0.04,,---,0.63,VWS V14.01,2013-06-10 00:22:00,
2013-06-09 20:27:00,67.1,54.5,27.55,WSW,246,0.0,0.0,64,0.08,,---,0.67,VWS V14.01,2013-06-10 00:27:00,
2013-06-09 20:32:00,67.1,54.5,27.55,ESE,120,0.0,2.2,64,0.08,,---,0.67,VWS V14.01,2013-06-10 00:32:00,
2013-06-09 20:37:00,67.1,54.5,27.55,North,353,0.0,2.2,64,0.08,,---,0.67,VWS V14.01,2013-06-10 00:37:00,
2013-06-09 20:42:00,67.1,54.5,27.55,North,353,0.0,0.0,64,0.12,,---,0.71,VWS V14.01,2013-06-10 00:42:00,
2013-06-09 20:47:00,66.9,54.8,27.55,North,357,0.0,0.0,65,0.20,,---,0.79,VWS V14.01,2013-06-10 00:47:00,
2013-06-09 20:52:00,66.9,54.8,27.55,ESE,117,0.0,0.0,65,0.20,,---,0.83,VWS V14.01,2013-06-10 00:52:00,
2013-06-09 20:57:00,66.9,54.8,27.52,ESE,117,0.0,0.0,65,0.28,,---,0.91,VWS V14.01,2013-06-10 00:57:00,
2013-06-09 21:02:00,66.7,54.6,27.52,ESE,117,0.0,0.0,65,0.39,,---,1.02,VWS V14.01,2013-06-10 01:02:00,
2013-06-09 21:07:00,66.7,54.6,27.52,ESE,117,0.0,0.0,65,0.47,,---,1.10,VWS V14.01,2013-06-10 01:07:00,
2013-06-09 21:12:00,66.7,55.0,27.52,ESE,117,0.0,0.0,66,0.51,,---,1.14,VWS V14.01,2013-06-10 01:12:00,
2013-06-09 21:17:00,66.7,55.0,27.52,ESE,118,0.0,0.0,66,0.63,,---,1.26,VWS V14.01,2013-06-10 01:17:00,
2013-06-09 21:22:00,66.7,55.0,27.52,SW,220,2.2,2.2,66,0.75,,---,1.38,VWS V14.01,2013-06-10 01:22:00,
2013-06-09 21:27:00,66.7,55.0,27.55,West,270,2.7,2.7,66,0.79,,---,1.42,VWS V14.01,2013-06-10 01:27:00,
2013-06-09 21:32:00,66.7,55.5,27.55,East,98,0.0,0.0,67,0.75,,---,1.42,VWS V14.01,2013-06-10 01:32:00,
2013-06-09 21:37:00,66.7,55.5,27.55,ESE,108,2.7,4.0,67,0.75,,---,1.42,VWS V14.01,2013-06-10 01:37:00,
2013-06-09 21:42:00,66.7,55.5,27.55,SE,137,0.0,3.1,67,0.71,,---,1.42,VWS V14.01,2013-06-10 01:42:00,
2013-06-09 21:47:00,66.7,55.8,27.55,West,273,0.0,2.2,68,0.63,,---,1.42,VWS V14.01,2013-06-10 01:47:00,
2013-06-09 21:52:00,66.7,55.8,27.55,West,259,0.0,0.0,68,0.59,,---,1.42,VWS V14.01,2013-06-10 01:52:00,
2013-06-09 21:57:00,66.7,55.8,27.52,SSW,205,0.0,0.0,68,0.51,,---,1.42,VWS V14.01,2013-06-10 01:57:00,
2013-06-09 22:02:00,66.7,55.8,27.52,WNW,284,0.0,0.0,68,0.43,,---,1.42,VWS V14.01,2013-06-10 02:02:00,
2013-06-09 22:07:00,66.7,55.8,27.52,WNW,284,0.0,0.0,68,0.31,,---,1.42,VWS V14.01,2013-06-10 02:07:00,
2013-06-09 22:12:00,66.7,55.8,27.55,South,188,0.0,0.0,68,0.28,,---,1.42,VWS V14.01,2013-06-10 02:12:00,
2013-06-09 22:17:00,66.7,56.3,27.55,South,182,0.0,0.0,69,0.16,,---,1.42,VWS V14.01,2013-06-10 02:17:00,
2013-06-09 22:22:00,66.7,56.3,27.55,SW,224,0.0,0.0,69,0.04,,---,1.42,VWS V14.01,2013-06-10 02:22:00,
2013-06-09 22:27:00,66.7,56.3,27.55,SW,228,0.0,0.0,69,0.00,,---,1.42,VWS V14.01,2013-06-10 02:27:00,
2013-06-09 22:32:00,66.7,56.3,27.55,SW,228,0.0,0.0,69,0.00,,---,1.42,VWS V14.01,2013-06-10 02:32:00,
2013-06-09 22:37:00,66.7,56.3,27.55,ENE,68,0.0,0.0,69,0.00,,---,1.42,VWS V14.01,2013-06-10 02:37:00,
2013-06-09 22:42:00,66.7,56.3,27.52,ENE,69,0.0,0.0,69,0.00,,---,1.42,VWS V14.01,2013-06-10 02:42:00,
2013-06-09 22:47:00,66.7,56.3,27.52,WSW,240,0.0,2.7,69,0.04,,---,1.46,VWS V14.01,2013-06-10 02:47:00,
2013-06-09 22:52:00,66.7,56.3,27.52,WSW,240,0.0,0.0,69,0.04,,---,1.46,VWS V14.01,2013-06-10 02:52:00,
2013-06-09 22:57:00,66.7,56.7,27.55,WSW,240,0.0,0.0,70,0.04,,---,1.46,VWS V14.01,2013-06-10 02:57:00,
2013-06-09 23:02:00,66.7,56.7,27.55,WSW,240,0.0,0.0,70,0.04,,---,1.46,VWS V14.01,2013-06-10 03:02:00,
2013-06-09 23:07:00,66.7,56.7,27.55,NW,322,3.1,3.1,70,0.04,,---,1.46,VWS V14.01,2013-06-10 03:07:00,
2013-06-09 23:12:00,66.7,56.7,27.55,ENE,58,0.0,0.0,70,0.08,,---,1.50,VWS V14.01,2013-06-10 03:12:00,
2013-06-09 23:17:00,66.7,56.7,27.55,North,0,0.0,0.0,70,0.08,,---,1.50,VWS V14.01,2013-06-10 03:17:00,
2013-06-09 23:22:00,66.7,56.7,27.55,North,353,0.0,0.0,70,0.08,,---,1.50,VWS V14.01,2013-06-10 03:22:00,
2013-06-09 23:27:00,66.7,56.7,27.55,NNW,344,0.0,0.0,70,0.12,,---,1.54,VWS V14.01,2013-06-10 03:27:00,
2013-06-09 23:32:00,66.7,56.7,27.55,SW,219,0.0,0.0,70,0.12,,---,1.54,VWS V14.01,2013-06-10 03:32:00,
2013-06-09 23:37:00,66.7,57.0,27.55,SW,217,0.0,0.0,71,0.12,,---,1.54,VWS V14.01,2013-06-10 03:37:00,
2013-06-09 23:42:00,66.7,57.0,27.52,NNE,22,3.1,3.1,71,0.16,,---,1.57,VWS V14.01,2013-06-10 03:42:00,
2013-06-09 23:47:00,66.7,57.0,27.52,ESE,106,2.7,2.7,71,0.12,,---,1.57,VWS V14.01,2013-06-10 03:47:00,
2013-06-09 23:52:00,66.9,57.2,27.52,East,89,0.0,2.2,71,0.12,,---,1.57,VWS V14.01,2013-06-10 03:52:00,
2013-06-09 23:57:00,66.9,57.2,27.52,ESE,102,0.0,0.0,71,0.12,,---,1.57,VWS V14.01,2013-06-10 03:57:00,